Regional Weather Roundup
Issued by NWS

Home | Current Version | Previous Version | Text Only | Print | Product List | Glossary On
Versions: 1 2 3 4 5 6 7 8 9 10 11 12 13 14 15 16 17 18 19 20 21 22 23 24 25 26 27 28 29 30 31 32 33 34 35 36 37 38 39 40 41 42 43 44 45 46 47 48 49 50
534
ASUS43 KMKX 251120
RWRWI

WISCONSIN REGIONAL WEATHER ROUNDUP
NATIONAL WEATHER SERVICE MILWAUKEE/SULLIVAN WI
500 AM CST SUN FEB 25 2018

NOTE: "FAIR" INDICATES FEW OR NO CLOUDS BELOW 12,000 FEET WITH NO
SIGNIFICANT WEATHER AND/OR OBSTRUCTIONS TO VISIBILITY.

WIZ001-002-006>008-014>016-023>028-251200-
NORTHWEST WISCONSIN

CITY           SKY/WX    TMP DP  RH WIND       PRES   REMARKS
SUPERIOR ARPT  CLOUDY    26  21  82 W13G22    29.36R WCI  15
ASHLAND        CLOUDY    28  24  85 SW20G30   29.30R WCI  15
HAYWARD        LGT SNOW  25  21  85 SW16G22   29.37R FOG     WCI  12
SIREN          CLOUDY    24  20  87 W16G22    29.45R WCI  10
CUMBERLAND     CLOUDY    21  18  86 W17G24    29.44R FOG     WCI   7
RICE LAKE      LGT SNOW  22  19  88 SW15G22   29.48R WCI   9
CHETEK         FLURRIES  21  18  87 W10G22    29.47R WCI  10
LADYSMITH      LGT SNOW  25  22  87 SW18G25   29.43R WCI  12
EAU CLAIRE     CLOUDY    20  16  84 W20G29    29.53R FOG     WCI   4
MENOMONIE      CLOUDY    20  17  86 SW20G25   29.55R FOG     WCI   5
NEW RICHMOND   CLOUDY    18  14  85 W17G24    29.54R FOG     WCI   3
OSCEOLA        CLOUDY    20  20 100 SW17      29.56R WCI   5
$$

WIZ003>005-009-010-017-018-251200-
NORTH CENTRAL WISCONSIN

CITY           SKY/WX    TMP DP  RH WIND       PRES   REMARKS
MANITOWISH WTR LGT SNOW  28  28 100 SW8       29.26R WCI  20
ARBOR VITAE    LGT SNOW  32  29  88 W16G31    29.27R WCI  21
WOODRUFF       LGT SNOW  32  29  88 W16G31    29.27R WCI  21
RHINELANDER    LGT SNOW  28  25  88 W23G39    29.30R FOG     WCI  14
EAGLE RIVER    FLURRIES  29  27  92 W16G22    29.25R WCI  18
LAND O LAKES   FLURRIES  30  28  90 W10G21    29.25R WCI  21
PHILLIPS       LGT SNOW  25  23  91 SW14G24   29.34R WCI  13
TOMAHAWK       LGT SNOW  26  23  87 W8G21     29.35R WCI  18
MEDFORD        LGT SNOW  21  18  87 SW15G28   29.42R WCI   7
MERRILL        LGT SNOW  24  21  88 W23G32    29.41R WCI   9
$$

WIZ029-030-035-036-043>047-251200-
CENTRAL WISCONSIN

CITY           SKY/WX    TMP DP  RH WIND       PRES   REMARKS
WAUSAU         MIX PCPN  24  21  88 W22G31    29.41R FOG     WCI   9
MOSINEE        CLOUDY    23  23 100 W23G29    29.45R FOG     WCI   7
MARSHFIELD     MIX PCPN  22  18  85 W25G35    29.48R FOG     WCI   5
STEVENS POINT  CLOUDY    22  20  93 W8G16     29.49R WCI  13
WAUPACA        CLOUDY    29  22  76 W26G35    29.50R WCI  14
WAUTOMA        CLOUDY    26  20  77 SW20G32   29.54R WCI  12
WISC RAPIDS    CLOUDY    24  18  77 MISG      29.53R
CAMP DOUGLAS   CLOUDY    24  20  82 W24G32    29.57R WCI   9
$$

WIZ011>013-019>022-031-037>040-048>050-251200-
NORTHEAST WISCONSIN

CITY           SKY/WX    TMP DP  RH WIND       PRES   REMARKS
ANTIGO         MIX PCPN  25  24  93 W25G37    29.35R WCI  10
SHAWANO        CLOUDY    31  25  80 W22G32    29.42R WCI  18
OCONTO         CLOUDY    33  30  86 W17G35    29.36R WCI  22
STURGEON BAY   MOCLDY    34  30  85 SW23G33   29.35R WCI  22
GREEN BAY      CLOUDY    32  24  72 W30G46    29.44R WCI  18
MANITOWOC      CLOUDY    33  25  72 W29G48    29.45R WCI  19
APPLETON       CLOUDY    30  23  74 W29G39    29.47R WCI  15
CLINTONVILLE   CLOUDY    27  22  80 W24G33    29.46R WCI  13
OSHKOSH        CLOUDY    29  22  75 W17G36    29.51R WCI  17
$$

WIZ032>034-041-042-053>061-251200-
SOUTHWEST WISCONSIN

CITY           SKY/WX    TMP DP  RH WIND       PRES   REMARKS
LA CROSSE      CLOUDY    24  17  74 W14G28    29.66R WCI  12
SPARTA         CLOUDY    24  20  83 W18G26    29.62R WCI  10
VIROQUA        CLOUDY    21  19  93 W18G25    29.63R WCI   6
BOSCOBEL       CLOUDY    27  19  72 W17G28    29.70R WCI  14
PRAIRIE DU CHI CLOUDY    25  18  73 W17       29.73R WCI  12
PLATTEVILLE    MOCLDY    28  23  83 W25G35    29.71R WCI  13
$$

WIZ056-057-062-063-064-067-068-251200-
SOUTH CENTRAL WISCONSIN

CITY           SKY/WX    TMP DP  RH WIND       PRES   REMARKS
REEDSBURG      CLOUDY    26  20  78 W21G30    29.62R WCI  11
BARABOO/DELLS  CLOUDY    26  20  79 W21       29.60R WCI  11
LONE ROCK      CLOUDY    28  21  75 W20G31    29.67R WCI  15
MINERAL POINT  CLOUDY    30  27  86 W26G32    29.65R WCI  16
MADISON        CLOUDY    28  21  75 W9G26     29.64R WCI  19
MIDDLETON      CLOUDY    30  24  78 W22G28    29.63R WCI  17
WATERTOWN      CLOUDY    29  24  79 W21G29    29.61R WCI  16
MONROE         CLOUDY    30  25  80 W29G39    29.66R WCI  15
JANESVILLE     CLOUDY    32  28  86 W21G31    29.67R WCI  20
$$

WIZ051-052-058>065-066-070>072-251200-
SOUTHEAST WISCONSIN

CITY           SKY/WX    TMP DP  RH WIND       PRES   REMARKS
MILWAUKEE      MOCLDY    33  25  72 W22G36    29.61R WCI  21
WAUKESHA       CLOUDY    28  21  74 W29G43    29.61R WCI  13
MILWAUKEE/TIMM CLOUDY    32  21  64 W30G39    29.60R WCI  18
RACINE         CLOUDY    33  24  69 W31G52    29.64R WCI  19
BURLINGTON     CLOUDY    31  24  73 W20G31    29.65R WCI  19
KENOSHA        CLOUDY    33  25  72 W28G46    29.64R WCI  20
FOND DU LAC    CLOUDY    30  22  72 SW21G35   29.54R WCI  17
SHEBOYGAN      CLOUDY    33  27  78 W25G40    29.50R WCI  20
WEST BEND      CLOUDY    32  27  80 W25G38    29.54R WCI  19
JUNEAU         CLOUDY    27  21  77 W32G43    29.60R WCI  11
$$

LSZ147-162-251200-
LAKE SUPERIOR

STATION/POSITION TIME  TEMP    WIND        PRES    WAVE
                       AIR SEA DIR/SP/G            HT/PER
                 (UTC) (F)     (DEG/KT/KT) (MB)    (FT/S)
DEVILS ISLAND    1100   29     230/ 11/ 13  991.5F
SAXON HARBOR     1040   29     230/ 10/ 18  991.5R
$$

LMZ867-665-643>646-251200-
LAKE MICHIGAN

STATION/POSITION TIME  TEMP    WIND        PRES    WAVE
                       AIR SEA DIR/SP/G            HT/PER
                 (UTC) (F)     (DEG/KT/KT) (MB)    (FT/S)
NORTHPORT PIER   0840   32                  993.6
KEWAUNEE LAKESHO 1054   35     250/ 14/ 23  995.0R
SHEBOYGAN LAKESH 1100   34     250/ 36/ 42  999.0R
PORT WASHINGTON  1046   34     250/ 15/ 37 1001.4R
KENOSHA   LAKESH 1100   33     260/ 30/ 37 1004.7
$$

TC  - TEMPERATURE IN CELSIUS
VSB - VISIBILITY IN STATUTE MILES
WCI - WIND CHILL INDEX
HX  - HEAT INDEX





USA.gov is the U.S. government's official web portal to all federal, state and local government web resources and services.